sat.trackr.live / text

‹ back to catalog

UNKNOWN

NORAD 87245

UNKNOWN UNKNOWN UNKNOWN

§ Identity

Operator
Country
Launch date
Launch site
Launch vehicle
Mass (kg)
RCS (m²)

External: N2YO · Heavens-Above

§ Orbital elements

Epoch: 2026-09-17T14:17:05.578080Z

Period
101.53 min
Inclination
65.6396°
Eccentricity
0.0432802
Mean motion
14.18361116 rev/d
Perigee alt
518.9 km
Apogee alt
1,142.9 km
Semi-major
7,209.0 km
B*
3.9966e-4
RAAN
20.2981°
Arg perigee
342.6022°
Mean anomaly
28.2534°
Rev number
65,372

§ Raw data

UNKNOWN1 87245U          26260.59520345  .00001989  00000+0  39966-3 0  99972 87245  65.6396  20.2981 0432802 342.6022  28.2534 14.18361116653722

JSON: /api/v1/satellites/87245 · /tle

For live sub-satellite position, see the globe view (requires WebGL).

§ Visibility from observer

Set your observer location to see the next 7 days of passes ≥ 10°. The values pass through the URL so the page stays shareable.

No JS? Fill the form by hand. The geolocation button needs JavaScript.